Location: *
(43.0409°N, 0.1694°E)
Time: 21:47:01
(UTC+00:00)

NOSS 3-1 (A) - Pass Details

Date: 03 October 2023
Orbit: 677 x 1534 km, 63.4° (Epoch: 03 November)

Event Time Altitude Azimuth Distance (km) Brightness Sun altitude
Rises 02:33:04 0° 325° (NW) 3,852 6.6 -36.5°
Reaches altitude 10° 02:35:35 10° 329° (NNW) 3,011 6.1 -36.1°
Maximum altitude 02:42:52 60° 49° (NE) 1,464 4.5 -35.0°
Drops below altitude 10° 02:51:35 10° 128° (SE) 3,573 6.6 -33.7°
Sets 02:54:48 0° 132° (SE) 4,614 7.2 -33.2°
